EW9686 Weather Reports


time (UTC)temp
F
wind
direction
speed
knots
gust
knots
rain 1hr
in
rain 24hr
in
rain mn
in
humidity
%
barometer
mb
20260506211519 68 225 5.2 12.2 0.00 0.00 0.00 77 1002.6
20260506210519 68 225 4.3 10.4 0.00 0.00 0.00 77 1002.5
20260506205519 68 225 4.3 9.6 0.00 0.00 0.00 78 1002.4
20260506204519 67 225 5.2 8.7 0.00 0.00 0.00 79 1002.5
20260506203519 67 225 5.2 10.4 0.00 0.00 0.00 79 1002.4
20260506202540 66 225 4.3 10.4 0.00 0.00 0.00 80 1002.5
20260506201519 66 225 4.3 11.3 0.00 0.00 0.00 81 1002.6
20260506200519 66 225 4.3 13.0 0.00 0.00 0.00 81 1002.7
20260506195519 65 225 4.3 9.6 0.00 0.00 0.00 83 1002.8
20260506194519 65 225 3.5 7.8 0.00 0.00 0.00 85 1002.9
20260506193520 64 225 2.6 7.8 0.00 0.00 0.00 86 1003.0
20260506192519 64 225 4.3 8.7 0.00 0.00 0.00 86 1003.1
20260506191519 64 225 6.1 12.2 0.00 0.00 0.00 86 1003.2
20260506190520 66 225 8.7 19.1 0.00 0.00 0.00 81 1003.3
20260506185519 67 225 5.2 8.7 0.00 0.00 0.00 75 1003.1
20260506184519 67 225 6.1 13.0 0.00 0.00 0.00 75 1003.3
20260506183519 67 225 6.1 11.3 0.00 0.00 0.00 75 1003.1
20260506182600 67 225 8.7 19.1 0.00 0.00 0.00 75 1003.2
20260506181519 68 225 6.1 11.3 0.00 0.00 0.00 73 1003.5
20260506180519 69 225 7.0 13.9 0.00 0.00 0.00 70 1003.4
20260506175519 70 225 7.8 17.4 0.00 0.00 0.00 68 1003.6
20260506174519 70 225 7.8 15.6 0.00 0.00 0.00 68 1003.6
20260506173519 70 225 6.1 13.9 0.00 0.00 0.00 68 1003.6
20260506172519 70 225 7.0 13.0 0.00 0.00 0.00 67 1003.6
20260506171519 70 225 7.8 20.0 0.00 0.00 0.00 69 1003.8
20260506170519 68 225 4.3 10.4 0.00 0.00 0.00 74 1003.8
20260506165519 68 225 4.3 10.4 0.00 0.00 0.00 74 1004.0
20260506164519 68 203 3.5 7.8 0.00 0.00 0.00 73 1004.4
20260506163519 68 225 4.3 12.2 0.00 0.00 0.00 73 1004.8
20260506162519 68 225 6.1 13.0 0.00 0.00 0.00 71 1005.1
20260506161519 68 203 2.6 7.8 0.00 0.00 0.00 72 1005.2
20260506160519 68 225 6.1 13.0 0.00 0.00 0.00 69 1005.2
20260506155519 69 225 6.1 12.2 0.00 0.00 0.00 66 1005.3
20260506154519 71 225 7.0 18.2 0.00 0.00 0.00 62 1005.2
20260506153519 71 225 4.3 10.4 0.00 0.00 0.00 62 1005.3
20260506152519 71 225 6.1 13.9 0.00 0.00 0.00 63 1005.1
20260506151519 70 225 6.1 12.2 0.00 0.00 0.00 63 1005.2
20260506150519 70 225 6.1 17.4 0.00 0.00 0.00 62 1005.3
20260506145520 70 225 7.0 16.5 0.00 0.00 0.00 61 1005.4
20260506144519 71 225 7.8 15.6 0.00 0.00 0.00 61 1005.4
20260506143519 71 225 4.3 8.7 0.00 0.00 0.00 62 1005.3
20260506142539 71 225 7.0 16.5 0.00 0.00 0.00 60 1005.2
20260506141519 71 225 6.1 13.9 0.00 0.00 0.00 62 1005.2
20260506140519 71 225 5.2 10.4 0.00 0.00 0.00 62 1005.1
20260506135519 71 225 7.0 17.4 0.00 0.00 0.00 62 1005.1
20260506134520 71 225 7.8 21.7 0.00 0.00 0.00 61 1005.2
20260506133519 71 225 9.6 17.4 0.00 0.00 0.00 62 1005.3
20260506132519 71 225 6.1 13.9 0.00 0.00 0.00 64 1005.4
20260506131519 70 225 7.8 18.2 0.00 0.00 0.00 65 1005.5
20260506130519 69 225 7.0 15.6 0.00 0.00 0.00 69 1005.6
20260506125519 68 225 7.8 15.6 0.00 0.00 0.00 70 1005.6
20260506124519 67 225 6.1 16.5 0.00 0.00 0.00 73 1005.5
20260506123519 65 225 5.2 13.0 0.00 0.00 0.00 76 1005.6
20260506122519 65 225 5.2 12.2 0.00 0.00 0.00 77 1005.7
20260506121519 64 225 3.5 9.6 0.00 0.00 0.00 78 1005.6
20260506120539 64 203 6.1 11.3 0.00 0.00 0.00 79 1005.7
20260506115519 64 225 6.1 12.2 0.00 0.00 0.00 78 1005.8
20260506114540 64 225 5.2 11.3 0.00 0.00 0.00 79 1006.0
20260506113559 63 225 7.0 13.9 0.00 0.00 0.00 80 1005.9
20260506112520 63 225 6.1 15.6 0.00 0.00 0.00 81 1006.0
20260506111519 62 225 5.2 13.0 0.00 0.00 0.00 82 1006.1
20260506110519 62 225 4.3 9.6 0.00 0.00 0.00 82 1006.0
20260506105519 62 225 5.2 11.3 0.00 0.00 0.00 83 1006.0
20260506104519 61 203 5.2 11.3 0.00 0.00 0.00 84 1005.9
20260506103540 61 225 4.3 8.7 0.00 0.00 0.00 85 1005.9
20260506102520 61 225 4.3 9.6 0.00 0.00 0.00 86 1006.0
20260506101519 61 225 4.3 10.4 0.00 0.00 0.00 85 1005.8
20260506100519 61 225 3.5 12.2 0.00 0.00 0.00 85 1005.7
20260506095519 61 203 4.3 10.4 0.00 0.00 0.00 85 1005.7
20260506094539 61 225 4.3 9.6 0.00 0.00 0.00 85 1005.7
20260506093519 61 225 3.5 6.1 0.00 0.00 0.00 85 1005.7
20260506092519 62 203 4.3 7.8 0.00 0.00 0.00 85 1005.8
20260506091519 62 225 3.5 7.8 0.00 0.00 0.00 84 1005.7
20260506090519 62 225 4.3 9.6 0.00 0.00 0.00 84 1005.7
20260506085519 62 225 4.3 11.3 0.00 0.00 0.00 84 1005.9
20260506084539 62 225 4.3 12.2 0.00 0.00 0.00 84 1006.0
20260506083519 62 225 4.3 9.6 0.00 0.00 0.00 83 1005.9
20260506082519 62 225 3.5 7.8 0.00 0.00 0.00 83 1006.0
20260506081519 62 225 3.5 7.8 0.00 0.00 0.00 83 1006.0
20260506080519 63 225 5.2 9.6 0.00 0.00 0.00 83 1006.1
20260506073519 63 225 2.6 7.8 0.00 0.00 0.00 82 1006.0
20260506072521 63 225 4.3 10.4 0.00 0.00 0.00 82 1006.1
20260506071519 63 225 4.3 12.2 0.00 0.00 0.00 82 1006.2
20260506070519 63 225 3.5 8.7 0.00 0.00 0.00 82 1006.4
20260506061540 63 203 2.6 7.0 0.00 0.00 0.00 80 1006.3
20260506060519 64 225 2.6 7.8 0.00 0.00 0.00 79 1006.3
20260506050519 65 203 3.5 9.6 0.00 0.00 0.00 75 1006.7
20260506044539 66 225 3.5 7.8 0.00 0.00 0.00 74 1006.7
20260506043519 66 225 4.3 9.6 0.00 0.00 0.00 73 1006.8
20260506042600 66 203 3.5 12.2 0.00 0.00 0.00 73 1006.8
20260506041519 66 225 3.5 8.7 0.00 0.00 0.00 73 1006.8
20260506040519 66 225 5.2 8.7 0.00 0.00 0.00 72 1006.7
20260506035519 66 225 6.1 12.2 0.00 0.00 0.00 71 1006.7
20260506034519 66 225 4.3 9.6 0.00 0.00 0.00 71 1006.7
20260506033519 66 203 4.3 13.0 0.00 0.00 0.00 71 1006.7
20260506032519 66 225 5.2 12.2 0.00 0.00 0.00 70 1006.7
20260506031519 66 225 2.6 7.0 0.00 0.00 0.00 70 1006.6
20260506030539 67 225 5.2 9.6 0.00 0.00 0.00 69 1006.7
20260506025519 67 225 5.2 10.4 0.00 0.00 0.00 68 1006.7
20260506024519 67 225 6.1 13.0 0.00 0.00 0.00 68 1006.7
20260506023519 67 225 3.5 8.7 0.00 0.00 0.00 66 1006.7
20260506022620 68 225 5.2 11.3 0.00 0.00 0.00 65 1006.9
20260506021519 68 225 5.2 17.4 0.00 0.00 0.00 63 1006.8
20260506020519 68 225 5.2 12.2 0.00 0.00 0.00 62 1006.6
20260506015539 68 225 4.3 9.6 0.00 0.00 0.00 61 1006.7
20260506014519 69 225 3.5 9.6 0.00 0.00 0.00 61 1006.6
20260506013520 69 225 3.5 7.8 0.00 0.00 0.00 61 1006.6
20260506012519 69 225 4.3 10.4 0.00 0.00 0.00 60 1006.5
20260506011520 69 225 3.5 13.9 0.00 0.00 0.00 60 1006.4
20260506010540 70 225 5.2 13.9 0.00 0.00 0.00 59 1006.4
20260506005519 70 225 4.3 9.6 0.00 0.00 0.00 59 1006.2
20260506004519 70 225 5.2 11.3 0.00 0.00 0.00 58 1006.0
20260506003519 71 225 4.3 11.3 0.00 0.00 0.00 57 1005.9
20260506002519 71 203 4.3 12.2 0.00 0.00 0.00 56 1005.9
20260506001519 72 225 2.6 6.1 0.00 0.00 0.00 55 1005.9
20260506000519 73 225 2.6 8.7 0.00 0.00 0.00 52 1005.7
20260505235519 75 203 4.3 9.6 0.00 0.00 0.00 47 1005.6
20260505234519 76 225 6.1 10.4 0.00 0.00 0.00 44 1005.3
20260505233559 77 225 7.0 17.4 0.00 0.00 0.00 40 1005.2
20260505232519 78 225 6.1 17.4 0.00 0.00 0.00 39 1005.1
20260505231519 78 225 7.0 13.9 0.00 0.00 0.00 38 1005.0
20260505230519 79 225 6.1 15.6 0.00 0.00 0.00 37 1004.8
20260505225540 79 225 8.7 20.0 0.00 0.00 0.00 37 1004.8
20260505224559 80 225 7.8 18.2 0.00 0.00 0.00 36 1004.6
20260505223520 80 225 5.2 12.2 0.00 0.00 0.00 35 1004.5
20260505222519 81 225 8.7 22.6 0.00 0.00 0.00 34 1004.4
20260505221519 81 225 7.8 18.2 0.00 0.00 0.00 35 1004.3
20260505220519 81 225 7.8 21.7 0.00 0.00 0.00 34 1004.2
20260505215519 82 225 7.0 18.2 0.00 0.00 0.00 33 1004.2
20260505214539 82 225 8.7 20.0 0.00 0.00 0.00 33 1004.2
20260505213519 82 225 8.7 18.2 0.00 0.00 0.00 33 1004.1
20260505212539 83 225 5.2 11.3 0.00 0.00 0.00 34 1004.0